Location: Bou Ouachlou
(32.7770°N, 5.6009°W)
Time: 04:10:12
(UTC+00:00)

IRIDIUM 103 - Pass Details

Date: 07 June 2020
Orbit: 776 x 779 km, 86.4° (Epoch: 07 July)

Event Time Altitude Azimuth Distance (km) Brightness Sun altitude
Exits shadow 02:25:48 60° 120° (ESE) 886 4.5 -27.0°
Maximum altitude 02:26:19 64° 89° (E) 859 4.5 -26.9°
Drops below altitude 10° 02:31:28 10° 9° (N) 2,334 7.6 -26.3°
Sets 02:33:51 0° 6° (N) 3,265 8.5 -26.1°
